| time (UTC) | temp F | wind direction | speed knots | gust knots | rain 1hr in | rain 24hr in | rain mn in | humidity % | barometer mb |
| 20260504050118 | 53 | 315 | 0.9 | 5.2 | 0.00 | 0.00 | 0.00 | 43 | 1012.2 |
| 20260504044558 | 54 | 34 | 0.9 | 4.3 | 0.00 | 0.00 | 0.00 | 41 | 1012.0 |
| 20260504043104 | 54 | 41 | 0.9 | 5.2 | 0.00 | 0.00 | 0.00 | 41 | 1011.8 |
| 20260504041557 | 54 | 29 | 1.7 | 5.2 | 0.00 | 0.00 | 0.00 | 39 | 1011.7 |
| 20260504034603 | 55 | 36 | 0.9 | 5.2 | 0.00 | 0.00 | 0.00 | 36 | 1010.7 |
| 20260504033056 | 56 | 32 | 1.7 | 7.0 | 0.00 | 0.00 | 0.00 | 35 | 1010.1 |
| 20260504031552 | 56 | 25 | 0.9 | 5.2 | 0.00 | 0.00 | 0.00 | 34 | 1009.7 |
| 20260504030050 | 57 | 46 | 0.9 | 4.3 | 0.00 | 0.00 | 0.00 | 35 | 1009.2 |
| 20260504024549 | 57 | 53 | 0.0 | 3.5 | 0.00 | 0.00 | 0.00 | 34 | 1008.9 |
| 20260504023049 | 58 | 44 | 0.0 | 6.1 | 0.00 | 0.00 | 0.00 | 35 | 1008.7 |
| 20260504021548 | 58 | 30 | 0.0 | 5.2 | 0.00 | 0.00 | 0.00 | 34 | 1008.5 |
| 20260504020059 | 59 | 27 | 0.0 | 7.0 | 0.00 | 0.00 | 0.00 | 33 | 1008.1 |
| 20260504014552 | 60 | 37 | 0.9 | 6.1 | 0.00 | 0.00 | 0.00 | 32 | 1007.8 |
| 20260504013049 | 63 | 72 | 0.9 | 6.1 | 0.00 | 0.00 | 0.00 | 31 | 1007.2 |
| 20260504011548 | 64 | 13 | 0.9 | 6.1 | 0.00 | 0.00 | 0.00 | 30 | 1006.9 |
| 20260504010044 | 65 | 74 | 0.9 | 7.0 | 0.00 | 0.00 | 0.00 | 30 | 1006.7 |
| 20260504004544 | 65 | 72 | 0.9 | 6.1 | 0.00 | 0.00 | 0.00 | 30 | 1006.3 |
| 20260504003046 | 66 | 39 | 0.0 | 5.2 | 0.00 | 0.00 | 0.00 | 29 | 1006.2 |
| 20260504001542 | 67 | 40 | 0.9 | 9.6 | 0.00 | 0.00 | 0.00 | 29 | 1006.0 |
| 20260504000046 | 68 | 39 | 0.0 | 3.5 | 0.00 | 0.00 | 0.00 | 28 | 1005.9 |
| 20260503234531 | 67 | 58 | 0.9 | 7.0 | 0.00 | 0.00 | 0.00 | 28 | 1005.7 |
| 20260503233030 | 68 | 71 | 0.9 | 7.0 | 0.00 | 0.00 | 0.00 | 28 | 1005.7 |
| 20260503231531 | 68 | 315 | 0.0 | 4.3 | 0.00 | 0.00 | 0.00 | 27 | 1005.6 |
| 20260503230029 | 68 | 342 | 0.9 | 5.2 | 0.00 | 0.00 | 0.00 | 27 | 1005.6 |
| 20260503224528 | 69 | 20 | 0.9 | 12.2 | 0.00 | 0.00 | 0.00 | 26 | 1005.5 |
| 20260503223027 | 72 | 64 | 0.0 | 4.3 | 0.00 | 0.00 | 0.00 | 24 | 1005.4 |
| 20260503221525 | 71 | 23 | 0.0 | 2.6 | 0.00 | 0.00 | 0.00 | 23 | 1005.5 |
| 20260503220024 | 71 | 354 | 0.0 | 2.6 | 0.00 | 0.00 | 0.00 | 24 | 1005.6 |
| 20260503214537 | 71 | 50 | 0.0 | 5.2 | 0.00 | 0.00 | 0.00 | 23 | 1005.6 |
| 20260503213022 | 71 | 17 | 0.0 | 4.3 | 0.00 | 0.00 | 0.00 | 24 | 1005.7 |
| 20260503211520 | 70 | 32 | 0.0 | 4.3 | 0.00 | 0.00 | 0.00 | 24 | 1005.9 |
| 20260503210018 | 70 | 40 | 0.0 | 2.6 | 0.00 | 0.00 | 0.00 | 24 | 1006.1 |
| 20260503204517 | 71 | 360 | 0.0 | 2.6 | 0.00 | 0.00 | 0.00 | 24 | 1006.2 |
| 20260503203015 | 71 | 352 | 0.0 | 4.3 | 0.00 | 0.00 | 0.00 | 24 | 1006.3 |
| 20260503201516 | 70 | 49 | 0.0 | 2.6 | 0.00 | 0.00 | 0.00 | 24 | 1006.4 |
| 20260503200013 | 70 | 231 | 0.0 | 2.6 | 0.00 | 0.00 | 0.00 | 22 | 1006.6 |
| 20260503194510 | 70 | 353 | 0.0 | 7.0 | 0.00 | 0.00 | 0.00 | 23 | 1006.9 |
| 20260503193008 | 69 | 11 | 0.0 | 2.6 | 0.00 | 0.00 | 0.00 | 24 | 1007.1 |
| 20260503191514 | 68 | 318 | 0.0 | 3.5 | 0.00 | 0.00 | 0.00 | 24 | 1007.4 |
| 20260503190004 | 68 | 331 | 0.0 | 5.2 | 0.00 | 0.00 | 0.00 | 25 | 1007.8 |
| 20260503184626 | 67 | 11 | 0.0 | 4.3 | 0.00 | 0.00 | 0.00 | 26 | 1008.1 |
| 20260503183101 | 67 | 20 | 0.0 | 1.7 | 0.00 | 0.00 | 0.00 | 25 | 1008.1 |
| 20260503181613 | 68 | 330 | 0.0 | 4.3 | 0.00 | 0.00 | 0.00 | 24 | 1008.2 |
| 20260503180112 | 68 | 310 | 0.0 | 5.2 | 0.00 | 0.00 | 0.00 | 25 | 1008.6 |
| 20260503174557 | 67 | 279 | 0.0 | 3.5 | 0.00 | 0.00 | 0.00 | 25 | 1009.0 |
| 20260503173059 | 66 | 17 | 0.0 | 3.5 | 0.00 | 0.00 | 0.00 | 26 | 1009.2 |
| 20260503171548 | 66 | 15 | 0.0 | 7.0 | 0.00 | 0.00 | 0.00 | 25 | 1009.3 |
| 20260503081548 | 53 | 280 | 0.0 | 2.6 | 0.00 | 0.00 | 0.00 | 35 | 1010.7 |
| 20260503071544 | 50 | 259 | 0.0 | 0.9 | 0.00 | 0.00 | 0.00 | 41 | 1010.8 |